TimeEDT,TemperatureF,Dew PointF,Humidity,Sea Level PressureIn,VisibilityMPH,Wind Direction,Wind SpeedMPH,Gust SpeedMPH,PrecipitationIn,Events,Conditions,WindDirDegrees,DateUTC
12:53 AM,30.9,10.9,43,29.99,10.0,NW,6.9,-,N/A,,Clear,310,2013-03-22 04:53:00
1:53 AM,30.9,10.0,42,30.01,10.0,NW,8.1,-,N/A,,Clear,310,2013-03-22 05:53:00
2:53 AM,30.0,10.9,45,30.00,10.0,NW,6.9,-,N/A,,Clear,320,2013-03-22 06:53:00
3:53 AM,28.9,10.9,47,29.99,10.0,NW,6.9,-,N/A,,Clear,310,2013-03-22 07:53:00
4:53 AM,28.0,10.9,49,30.00,10.0,West,3.5,-,N/A,,Clear,280,2013-03-22 08:53:00
5:53 AM,21.9,12.9,68,30.02,10.0,SSW,3.5,-,N/A,,Clear,200,2013-03-22 09:53:00
6:53 AM,25.0,12.0,58,30.05,10.0,West,3.5,-,N/A,,Clear,270,2013-03-22 10:53:00
7:53 AM,26.1,15.1,63,30.07,10.0,WNW,3.5,-,N/A,,Clear,290,2013-03-22 11:53:00
8:53 AM,30.9,14.0,50,30.09,10.0,West,5.8,-,N/A,,Clear,270,2013-03-22 12:53:00
9:53 AM,35.1,12.9,40,30.08,10.0,Variable,4.6,-,N/A,,Clear,0,2013-03-22 13:53:00
10:53 AM,37.9,10.9,33,30.09,10.0,Variable,4.6,-,N/A,,Clear,0,2013-03-22 14:53:00
11:53 AM,41.0,10.9,29,30.07,10.0,Variable,4.6,-,N/A,,Clear,0,2013-03-22 15:53:00
12:53 PM,45.0,12.0,26,30.05,10.0,SW,8.1,-,N/A,,Clear,230,2013-03-22 16:53:00
1:53 PM,48.0,12.0,24,30.02,10.0,WSW,9.2,16.1,N/A,,Clear,250,2013-03-22 17:53:00
2:53 PM,48.9,9.0,20,29.99,10.0,WNW,8.1,-,N/A,,Clear,290,2013-03-22 18:53:00
3:53 PM,50.0,10.9,21,29.97,10.0,WSW,11.5,-,N/A,,Clear,240,2013-03-22 19:53:00
4:53 PM,50.0,10.0,20,29.97,10.0,West,8.1,-,N/A,,Clear,280,2013-03-22 20:53:00
5:53 PM,52.0,10.9,19,29.97,10.0,WSW,11.5,16.1,N/A,,Clear,240,2013-03-22 21:53:00
6:53 PM,50.0,12.0,22,29.98,10.0,West,6.9,-,N/A,,Clear,260,2013-03-22 22:53:00
7:53 PM,42.1,18.0,38,29.99,10.0,Calm,Calm,-,N/A,,Clear,0,2013-03-22 23:53:00
8:53 PM,37.0,21.9,54,29.99,10.0,Calm,Calm,-,N/A,,Clear,0,2013-03-23 00:53:00
9:53 PM,34.0,21.9,61,30.01,10.0,Calm,Calm,-,N/A,,Clear,0,2013-03-23 01:53:00
10:53 PM,30.9,21.9,69,30.02,10.0,Calm,Calm,-,N/A,,Clear,0,2013-03-23 02:53:00
11:53 PM,30.0,23.0,75,30.03,10.0,Calm,Calm,-,N/A,,Clear,0,2013-03-23 03:53:00